Weather History for KDCU - February, 2013

Change the Weather History Date:

Friday, February 8, 2013

  Actual Average Record
Temperature  
Mean Temperature 42 °F -  
Max Temperature 50 °F 48 °F 76 °F (1957)
Min Temperature 33 °F 27 °F 12 °F (1982)
Degree Days  
Heating Degree Days 24    
Moisture  
Dew Point 41 °F    
Average Humidity 86    
Maximum Humidity 100    
Minimum Humidity 68    
Precipitation  
Precipitation 0.36 in - - ()
Sea Level Pressure  
Sea Level Pressure 30.11 in    
Wind  
Wind Speed 7 mph (North)    
Max Wind Speed 16 mph    
Max Gust Speed 21 mph    
Visibility 7 miles    
Events Rain    
Averages and records for this station are not official NWS values.
T = Trace of Precipitation, MM = Missing Value Source: NWS Daily Summary

Daily Weather History Graph

Daily Weather History Graph

Search for Another Location

Airport or City:

Trip Planner

Search our weather history database for the weather conditions in past years. The results will help you decide how hot, cold, wet, or windy it might be!

Date:

Astronomy

Feb. 08, 2013 Rise Set
Actual Time 6:39 AM CST 5:24 PM CST
Civil Twilight 6:13 AM CST 5:50 PM CST
Nautical Twilight 5:44 AM CST 6:20 PM CST
Astronomical Twilight 5:14 AM CST 6:49 PM CST
Moon 5:06 AM CST (2/8) 3:58 PM CST (2/8)
Length of Visible Light 11h 36m
Length of Day
10h 44m
Waning Crescent, 3% of the Moon is Illuminated
Feb 8
Waning Crescent
Feb 10
New
Feb 17
First Quarter
Feb 25
Full
Mar 4
Last Quarter

Hourly Weather History & Observations

Time (CST) Temp. Windchill Dew Point Humidity Pressure Visibility Wind Dir Wind Speed Gust Speed Precip Events Conditions
12:53 AM 48.9 °F - 46.0 °F 90% 29.95 in 10.0 mi SE 5.8 mph - N/A   Overcast
1:53 AM 46.9 °F - 45.0 °F 93% 29.92 in 10.0 mi SSE 6.9 mph - N/A   Clear
2:53 AM 46.0 °F 44.8 °F 45.0 °F 96% 29.93 in 8.0 mi SSW 3.5 mph - N/A   Overcast
3:53 AM 48.9 °F - 46.0 °F 90% 29.96 in 8.0 mi SW 6.9 mph - N/A   Overcast
4:14 AM 48.2 °F - 46.4 °F 93% 29.95 in 9.0 mi South 8.1 mph - N/A   Overcast
4:53 AM 48.9 °F - 46.0 °F 90% 29.99 in 7.0 mi West 12.7 mph - N/A   Overcast
5:08 AM 48.2 °F - 46.4 °F 93% 29.99 in 2.5 mi West 3.5 mph - 0.08 in Rain Heavy Rain
5:20 AM 48.2 °F - 46.4 °F 93% 29.97 in 3.0 mi SSE 4.6 mph - 0.11 in Rain Rain
5:53 AM 48.0 °F - 46.9 °F 96% 29.99 in 3.0 mi SSW 4.6 mph - 0.15 in Rain Light Rain
6:06 AM 48.2 °F - 46.4 °F 93% 29.98 in 2.5 mi SE 5.8 mph - 0.06 in Rain Heavy Rain
6:30 AM 48.2 °F - 46.4 °F 93% 29.99 in 4.0 mi Calm Calm - 0.12 in Rain Light Rain
6:53 AM 48.0 °F - 46.9 °F 96% 29.99 in 4.0 mi Calm Calm - 0.14 in Rain Light Rain
7:23 AM 48.2 °F - 46.4 °F 93% 30.01 in 3.0 mi NNW 5.8 mph - 0.00 in   Overcast
7:30 AM 48.2 °F - 46.4 °F 93% 30.02 in 2.0 mi North 5.8 mph - 0.00 in Rain Light Rain
7:36 AM 48.2 °F - 46.4 °F 93% 30.02 in 1.8 mi NNW 3.5 mph - 0.00 in Rain Light Rain
7:53 AM 48.0 °F - 46.9 °F 96% 30.03 in 1.8 mi North 3.5 mph - 0.01 in Rain Light Rain
8:04 AM 48.2 °F - 46.4 °F 93% 30.04 in 2.0 mi North 4.6 mph - 0.00 in Rain Light Rain
8:17 AM 48.2 °F - 46.4 °F 93% 30.05 in 1.5 mi North 4.6 mph - 0.01 in Rain Light Rain
8:31 AM 48.2 °F - 48.2 °F 100% 30.05 in 2.0 mi NNW 4.6 mph - 0.02 in Rain Light Rain
8:48 AM 48.2 °F - 48.2 °F 100% 30.06 in 4.0 mi NNW 4.6 mph - 0.03 in Rain Light Rain
8:53 AM 48.9 °F - 48.0 °F 97% 30.06 in 4.0 mi NNW 5.8 mph - 0.03 in   Overcast
9:01 AM 48.2 °F - 46.4 °F 93% 30.07 in 4.0 mi NNW 6.9 mph - N/A   Overcast
9:44 AM 48.2 °F - 46.4 °F 93% 30.09 in 5.0 mi North 12.7 mph - 0.01 in Rain Light Rain
9:53 AM 48.9 °F - 46.0 °F 90% 30.10 in 5.0 mi North 13.8 mph - 0.01 in Rain Light Rain
10:06 AM 48.2 °F - 46.4 °F 93% 30.10 in 5.0 mi North 12.7 mph - 0.01 in Rain Light Rain
10:29 AM 48.2 °F - 44.6 °F 87% 30.11 in 10.0 mi North 11.5 mph - 0.02 in Rain Light Rain
10:36 AM 48.2 °F - 44.6 °F 87% 30.12 in 10.0 mi North 12.7 mph - 0.02 in Rain Light Rain
10:50 AM 48.2 °F - 44.6 °F 87% 30.12 in 10.0 mi North 9.2 mph - 0.02 in Rain Light Rain
10:53 AM 48.0 °F - 45.0 °F 89% 30.13 in 10.0 mi North 11.5 mph - 0.02 in Rain Light Rain
11:15 AM 48.2 °F - 42.8 °F 82% 30.13 in 10.0 mi North 13.8 mph - 0.00 in   Overcast
12:53 PM 48.9 °F - 41.0 °F 74% 30.16 in 10.0 mi North 16.1 mph - N/A   Mostly Cloudy
1:53 PM 50.0 °F - 39.9 °F 68% 30.17 in 10.0 mi North 13.8 mph 20.7 mph N/A   Mostly Cloudy
2:53 PM 48.0 °F - 37.9 °F 68% 30.18 in 10.0 mi North 15.0 mph - N/A   Overcast
3:53 PM 46.9 °F - 37.0 °F 68% 30.19 in 10.0 mi North 15.0 mph - N/A   Mostly Cloudy
4:46 PM 42.8 °F 36.2 °F 33.8 °F 70% 30.21 in 10.0 mi NNE 12.7 mph - N/A   Scattered Clouds
4:53 PM 43.0 °F 36.8 °F 34.0 °F 71% 30.22 in 10.0 mi North 11.5 mph - N/A   Scattered Clouds
5:11 PM 42.8 °F 36.6 °F 33.8 °F 70% 30.22 in 10.0 mi North 11.5 mph - N/A   Mostly Cloudy
5:37 PM 41.0 °F 35.8 °F 33.8 °F 76% 30.22 in 10.0 mi North 8.1 mph - N/A   Partly Cloudy
5:53 PM 41.0 °F 37.1 °F 33.1 °F 73% 30.23 in 10.0 mi NNE 5.8 mph - N/A   Partly Cloudy
6:53 PM 37.9 °F 32.1 °F 33.1 °F 83% 30.29 in 10.0 mi NNW 8.1 mph - N/A   Scattered Clouds
7:53 PM 39.0 °F 32.8 °F 32.0 °F 76% 30.28 in 10.0 mi North 9.2 mph - N/A   Clear
8:53 PM 37.9 °F 32.7 °F 30.9 °F 76% 30.26 in 10.0 mi NE 6.9 mph - N/A   Clear
9:53 PM 37.0 °F 32.4 °F 28.9 °F 73% 30.26 in 10.0 mi NNE 5.8 mph - N/A   Clear
10:53 PM 35.1 °F 32.2 °F 28.9 °F 78% 30.30 in 10.0 mi WNW 3.5 mph - N/A   Clear
11:21 PM 33.8 °F 30.8 °F 28.4 °F 81% 30.28 in 10.0 mi NNE 3.5 mph - N/A   Mostly Cloudy
11:39 PM 33.8 °F - 28.4 °F 81% 30.28 in 10.0 mi Calm Calm - N/A   Scattered Clouds
11:53 PM 34.0 °F 31.0 °F 28.0 °F 79% 30.30 in 10.0 mi North 3.5 mph - N/A   Clear